Location: Cedar Falls
(42.5280°N, 92.4450°W)
Time: 21:12:01
(UTC-05:00)

NOSS 3-1 (C) - Visible Passes

Search period start: 29 August 2014 00:00
Search period end: 08 September 2014 00:00
Orbit: 897 x 1312 km, 63.4° (Epoch: 26 August)

Date Brightness Start Highest point End Pass type
(mag) Time Alt. Az. Time Alt. Az. Time Alt. Az.
29 Aug 5.2 21:50:56 10° NW 21:57:40 35° WSW 22:04:16 12° S visible
30 Aug 4.7 21:05:20 10° NW 21:12:38 54° WSW 21:20:24 10° SSE visible
31 Aug 4.2 20:19:58 10° NW 20:27:29 79° WSW 20:35:32 10° SSE visible
31 Aug 6.2 22:12:57 10° WNW 22:17:32 17° WSW 22:22:15 10° SW visible
01 Sep 5.7 21:26:30 10° WNW 21:32:42 28° WSW 21:39:11 10° SSW visible
02 Sep 5.1 20:40:43 10° NW 20:47:44 43° WSW 20:55:11 10° S visible
03 Sep 4.6 19:55:14 10° NW 20:02:39 64° WSW 20:10:36 10° SSE visible
03 Sep 6.5 21:49:35 10° W 21:52:27 12° WSW 21:55:22 10° SW visible
04 Sep 6.2 21:02:15 10° WNW 21:07:42 21° WSW 21:13:21 10° SSW visible
05 Sep 5.7 20:16:10 10° NW 20:22:48 34° WSW 20:29:48 10° S visible
07 Sep 6.5 20:38:19 10° WNW 20:42:39 16° WSW 20:47:07 10° SW visible
